Tri-Cities, TN

8:49 AM EST on January 21, 2018 (GMT -0500)
Tri-Cities Regional Tennessee / Virginia

Weather History for KTRI - April, 2014

Change the Weather History Date:

Wednesday, April 16, 2014

  Actual Average Record
Temperature  
Mean Temperature 43 °F 55 °F  
Max Temperature 61 °F 68 °F 87 °F (2002)
Min Temperature 25 °F 43 °F 25 °F (2014)
Degree Days  
Heating Degree Days 22 10  
Month to date heating degree days 137 192  
Since 1 July heating degree days 4248 4142  
Cooling Degree Days 0 0  
Month to date cooling degree days 6 0  
Year to date cooling degree days 6 1  
Moisture  
Dew Point 18 °F    
Average Humidity 47    
Maximum Humidity 75    
Minimum Humidity 19    
Precipitation  
Precipitation 0.00 in 0.11 in 1.56 in (1998)
Month to date precipitation 1.63 1.75  
Year to date precipitation 8.96 12.01  
Snow  
Snow 0.00 in 0.10 in - ()
Month to date snowfall T 0.8  
Since 1 July snowfall 13.0 13.0  
Snow Depth 0.00 in    
Sea Level Pressure  
Sea Level Pressure 30.27 in    
Wind  
Wind Speed 6 mph (NE)    
Max Wind Speed 15 mph    
Max Gust Speed 21 mph    
Visibility 10 miles    
Events      
T = Trace of Precipitation, MM = Missing Value Source: NWS Daily Summary

Daily Weather History Graph

Daily Weather History Graph

Search for Another Location

Airport or City:

Trip Planner

Search our weather history database for the weather conditions in past years. The results will help you decide how hot, cold, wet, or windy it might be!

Date:

Astronomy

Apr. 16, 2014 Rise Set
Actual Time 6:54 AM EDT 8:04 PM EDT
Civil Twilight 6:28 AM EDT 8:31 PM EDT
Nautical Twilight 5:56 AM EDT 9:03 PM EDT
Astronomical Twilight 5:23 AM EDT 9:36 PM EDT
Moon 9:44 PM EDT (4/16) 7:42 AM EDT (4/16)
Length of Visible Light 14h 03m
Length of Day
13h 10m
Full, 98% of the Moon is Illuminated
Apr 16
Full
Apr 22
Last Quarter
Apr 29
New
May 6
First Quarter
May 14
Full

Hourly Weather History & Observations

Time (EDT) Temp. Windchill Dew Point Humidity Pressure Visibility Wind Dir Wind Speed Gust Speed Precip Events Conditions
12:53 AM 34.0 °F 29.8 °F 18.0 °F 52% 30.17 in 10.0 mi Variable 4.6 mph - N/A   Overcast
1:53 AM 33.1 °F 26.1 °F 18.0 °F 54% 30.20 in 10.0 mi North 8.1 mph - N/A   Mostly Cloudy
2:53 AM 30.9 °F 25.2 °F 16.0 °F 54% 30.22 in 10.0 mi North 5.8 mph - N/A   Scattered Clouds
3:53 AM 28.9 °F 23.9 °F 17.1 °F 61% 30.25 in 10.0 mi NNE 4.6 mph - N/A   Clear
4:53 AM 28.9 °F 23.9 °F 16.0 °F 58% 30.27 in 10.0 mi NNE 4.6 mph - N/A   Clear
5:53 AM 27.0 °F 23.0 °F 18.0 °F 69% 30.29 in 10.0 mi North 3.5 mph - N/A   Clear
6:53 AM 27.0 °F 23.0 °F 17.1 °F 66% 30.32 in 10.0 mi North 3.5 mph - N/A   Clear
7:53 AM 28.9 °F - 21.0 °F 72% 30.35 in 10.0 mi Calm Calm - N/A   Clear
8:53 AM 33.1 °F 28.7 °F 18.0 °F 54% 30.34 in 10.0 mi NE 4.6 mph - N/A   Clear
9:53 AM 35.1 °F 29.3 °F 19.0 °F 52% 30.36 in 10.0 mi East 6.9 mph - N/A   Clear
10:53 AM 39.0 °F 33.4 °F 18.0 °F 43% 30.36 in 10.0 mi NE 8.1 mph - N/A   Clear
11:53 AM 43.0 °F 38.2 °F 17.1 °F 35% 30.35 in 10.0 mi NE 8.1 mph - N/A   Clear
12:53 PM 46.0 °F 41.4 °F 16.0 °F 30% 30.32 in 10.0 mi ENE 9.2 mph - N/A   Partly Cloudy
1:53 PM 51.8 °F - 19.4 °F 28% 30.30 in 10.0 mi North 9.2 mph - N/A   Partly Cloudy
2:53 PM 55.0 °F - 19.0 °F 24% 30.26 in 10.0 mi Variable 3.5 mph - N/A   Partly Cloudy
3:53 PM 57.0 °F - 19.9 °F 24% 30.24 in 10.0 mi Calm Calm - N/A   Partly Cloudy
4:53 PM 60.1 °F - 21.0 °F 22% 30.22 in 10.0 mi Calm Calm - N/A   Partly Cloudy
5:53 PM 61.0 °F - 21.9 °F 22% 30.21 in 10.0 mi NNE 3.5 mph - N/A   Partly Cloudy
6:53 PM 60.1 °F - 23.0 °F 24% 30.20 in 10.0 mi East 4.6 mph - N/A   Partly Cloudy
7:53 PM 57.0 °F - 15.1 °F 19% 30.21 in 10.0 mi East 8.1 mph - N/A   Partly Cloudy
8:53 PM 53.1 °F - 15.1 °F 22% 30.23 in 10.0 mi ESE 8.1 mph - N/A   Partly Cloudy
9:53 PM 51.1 °F - 17.1 °F 26% 30.26 in 10.0 mi SE 12.7 mph 19.6 mph N/A   Partly Cloudy
10:53 PM 48.9 °F - 18.0 °F 29% 30.28 in 10.0 mi ESE 11.5 mph 17.3 mph N/A   Partly Cloudy
11:53 PM 48.0 °F - 18.0 °F 30% 30.29 in 10.0 mi ESE 8.1 mph 17.3 mph N/A   Clear